Tracking 28799 objects as of 18-Apr-2024
HD Live streaming from Space Station
objects crossing your sky now

SL-12 R/B(2)

Track SL-12 R/B(2) now!


NORAD ID: 27404
Int'l Code: 2002-016B
Perigee: 3,463.9 km
Apogee: 35,926.2 km
Inclination: 24.5 °
Period: 698.0 minutes
Semi major axis: 26066 km
RCS: 19.7997 m2 (large)
Launch date: March 30, 2002
Source: Commonwealth of Independent States (former USSR) (CIS)
Launch site: TYURATAM MISSILE AND SPACE COMPLEX (TTMTR)

Note: This is a ROCKET BODY
Your satellite tracking list
Your tracking list is empty




NASA's NSSDC Master Catalog

Two Line Element Set (TLE):
1 27404U 02016B   24107.08234628 -.00000499  00000-0  00000-0 0  9996
2 27404  24.5074 106.4472 6226930 282.2906  18.3391  2.06295899166167
Source of the keplerian elements: AFSPC